Regional Weather Roundup
Issued by NWS

Home | Current Version | Previous Version | Text Only | Print | Product List | Glossary On
Versions: 1 2 3 4 5 6 7 8 9 10 11 12 13 14 15 16 17 18 19 20 21 22 23 24 25 26 27 28 29 30 31 32 33 34 35 36 37 38 39 40 41 42 43 44 45 46 47 48 49 50
041
ASUS46 KPQR 042210
RWROR

OREGON REGIONAL WEATHER ROUNDUP
NATIONAL WEATHER SERVICE PORTLAND OR
200 PM PST SUN DEC 04 2016

NOTE: "FAIR" INDICATES FEW OR NO CLOUDS BELOW 12,000 FEET WITH
NO SIGNIFICANT WEATHER AND/OR OBSTRUCTIONS TO VISIBILITY.

ORZ001>013-042300-
NORTHWEST OREGON


CITY           SKY/WX    TMP DP  RH WIND       PRES   REMARKS
ASTORIA        CLOUDY    48  34  58 NW22G39   30.13R
NEWPORT        MOSUNNY   48  37  66 NW16      30.19S
PORTLAND       LGT RAIN  46  36  68 W6        30.13S
VANCOUVER WA   LGT RAIN  47  36  65 W8        30.12F
SCAPPOOSE      PTSUNNY   46  38  73 NW5       30.12R
HILLSBORO      CLOUDY    48  37  65 W8        30.12S
AURORA         PTSUNNY   45  41  86 S5        30.15S
MCMINNVILLE    LGT RAIN  41  35  79 W5        30.15R
SALEM          CLOUDY    45  39  79 CALM      30.14S
CORVALLIS        N/A     46  39  76 W6        30.16S
EUGENE         CLOUDY    46  40  79 NW7       30.16R
$$

ORZ021-028-042300-
SOUTHWEST OREGON


CITY           SKY/WX    TMP DP  RH WIND       PRES   REMARKS
NORTH BEND     CLOUDY    46  45  93 NE3       30.20S
BROOKINGS      LGT RAIN  49  49 100 S10       30.13F VSB 1/4
ROSEBURG       RAIN      45  41  86 NW8       30.16R FOG
SEXTON SUMMIT  FOG       35  35 100 N6        30.03S VSB 1/4 WCI  30
MEDFORD        CLOUDY    45  41  86 N5        30.06F
$$

ORZ014>016-041-042300-
COLUMBIA GORGE


CITY           SKY/WX    TMP DP  RH WIND       PRES   REMARKS
TROUTDALE      PTSUNNY   47  34  60 W3        30.13S
THE DALLES     MOSUNNY   47  28  47 W14G31    30.05R
$$

ORZ029>031-041-044-049-050-061>064-502-503-505>511-042300-
EASTERN OREGON


CITY           SKY/WX    TMP DP  RH WIND       PRES   REMARKS
REDMOND        CLOUDY    37  31  78 NW14      29.97S WCI  28
BEND           CLOUDY    36  32  87 CALM      29.97S
PRINEVILLE     CLOUDY    36  34  93 VRB5      29.98S WCI  32
KLAMATH FALLS  CLOUDY    46  38  73 W8        29.99F
LAKEVIEW       MOSUNNY   46  32  57 SW17G30   29.96F
HERMISTON      MOSUNNY   47  30  51 W23G37    29.94R
PENDLETON      PTSUNNY   42  29  59 W30G41    29.90R
JOHN DAY       MIX PCPN  36  35  94 W16G22    29.89R WCI  26
MEACHAM        NOT AVBL
LA GRANDE      CLOUDY    36  25  64 W18       29.89R WCI  25
BAKER CITY     LGT SNOW  33  31  92 NW10      29.86R FOG     WCI  25
BURNS          CLOUDY    39  31  72 W17       29.87R WCI  30
ROME             N/A     53  29  39 SW31G45   29.83F
ONTARIO        CLOUDY    46  34  62 N5        29.84S
$$




USA.gov is the U.S. government's official web portal to all federal, state and local government web resources and services.